User: anonymous   Login
Location: Unspecified
(42.3650°N, 71.1030°W)
Time: 12:10:10
(UTC+00:00)
Language:

S-56A Canister/Altair - Orbit

View from above orbital plane
View from above orbital plane
View from above satellite
View from above satellite

Ground track
Ground track

The orbit data is extracted from the following two-line orbital elements,

1 00082U 61004B   24176.42771298  .00000472  00000-0  43025-3 0  9991
2 00082  38.8551 162.6306 1165422 329.2147  24.4925 12.26795133988005
Epoch (UTC): 24 June 2024 10:15:54
Eccentricity: 0.1165422
inclination: 38.8551°
perigee height: 637 km
apogee height: 2488 km
right ascension of ascending node: 162.6306°
argument of perigee: 329.2147°
revolutions per day: 12.26795133
mean anomaly at epoch: 24.4925°
orbit number at epoch: 98800

The dashed part of the orbit path shows where the satellite is in the earth's shadow,  

DLR